GW7667 Weather Reports


time (UTC)temp
C
wind
direction
speed
KPH
gust
KPH
rain 1hr
cm
rain 24hr
cm
rain mn
cm
humidity
%
barometer
mb
20260906191448 24 278 4.8 6.4 0.00 0.00 0.00 49 1020.3
20260906190948 24 355 0.0 6.4 0.00 0.00 0.00 51 1020.4
20260906190446 25 313 4.8 6.4 0.00 0.00 0.00 47 1020.1
20260906185942 25 289 3.2 3.2 0.00 0.00 0.00 47 1020.3
20260906185441 25 234 3.2 3.2 0.00 0.00 0.00 46 1020.3
20260906184940 25 244 1.6 1.6 0.00 0.00 0.00 49 1020.4
20260906184436 25 214 0.0 3.2 0.00 0.00 0.00 50 1020.5
20260906183931 25 213 1.6 3.2 0.00 0.00 0.00 50 1020.6
20260906183427 25 132 0.0 3.2 0.00 0.00 0.00 50 1020.7
20260906182922 24 227 0.0 4.8 0.00 0.00 0.00 52 1020.5
20260906182417 23 299 0.0 8.0 0.00 0.00 0.00 55 1020.6
20260906181913 24 289 3.2 3.2 0.00 0.00 0.00 52 1020.6
20260906181409 23 311 3.2 6.4 0.00 0.00 0.00 51 1020.7
20260906180904 23 355 1.6 6.4 0.00 0.00 0.00 52 1020.6
20260906180359 24 288 3.2 8.0 0.00 0.00 0.00 51 1020.7
20260906175856 24 217 0.0 3.2 0.00 0.00 0.00 52 1020.6
20260906175352 24 312 0.0 6.4 0.00 0.00 0.00 52 1020.7
20260906174851 23 28 0.0 3.2 0.00 0.00 0.00 55 1020.7
20260906174350 23 323 0.0 3.2 0.00 0.00 0.00 57 1020.7
20260906173845 23 314 0.0 1.6 0.00 0.00 0.00 59 1020.6
20260906173341 23 5 0.0 3.2 0.00 0.00 0.00 58 1020.6
20260906172840 23 269 0.0 1.6 0.00 0.00 0.00 60 1021.0
20260906172336 23 149 0.0 6.4 0.00 0.00 0.00 57 1020.9
20260906171831 23 326 3.2 3.2 0.00 0.00 0.00 60 1021.0
20260906171326 23 333 0.0 4.8 0.00 0.00 0.00 58 1020.7
20260906170822 24 228 0.0 3.2 0.00 0.00 0.00 57 1020.7
20260906170318 23 294 1.6 4.8 0.00 0.00 0.00 56 1020.6
20260906165814 23 322 1.6 3.2 0.00 0.00 0.00 57 1020.7
20260906165313 23 318 1.6 3.2 0.00 0.00 0.00 59 1020.9
20260906164814 23 239 0.0 3.2 0.00 0.00 0.00 60 1020.9
20260906164308 23 117 0.0 3.2 0.00 0.00 0.00 60 1020.7
20260906163804 23 269 0.0 3.2 0.00 0.00 0.00 58 1020.9
20260906163300 23 292 6.4 6.4 0.00 0.00 0.00 55 1021.0
20260906162757 22 103 0.0 4.8 0.00 0.00 0.00 59 1020.9
20260906162256 22 320 4.8 6.4 0.00 0.00 0.00 55 1021.0
20260906161756 22 324 4.8 4.8 0.00 0.00 0.00 56 1021.1
20260906161255 22 32 0.0 4.8 0.00 0.00 0.00 56 1020.9
20260906160754 22 89 0.0 4.8 0.00 0.00 0.00 60 1021.1
20260906160249 22 310 0.0 1.6 0.00 0.00 0.00 66 1020.9
20260906155747 21 3 1.6 6.4 0.00 0.00 0.00 65 1021.0
20260906155242 21 29 0.0 1.6 0.00 0.00 0.00 66 1021.0
20260906154737 21 77 0.0 1.6 0.00 0.00 0.00 69 1021.1
20260906154232 21 306 1.6 1.6 0.00 0.00 0.00 69 1021.0
20260906153730 20 327 3.2 3.2 0.00 0.00 0.00 68 1020.9
20260906153220 20 315 0.0 3.2 0.00 0.00 0.00 70 1020.9
20260906152715 20 89 0.0 1.6 0.00 0.00 0.00 70 1020.7
20260906152215 20 339 0.0 0.0 0.00 0.00 0.00 71 1021.1
20260906151709 20 315 0.0 1.6 0.00 0.00 0.00 71 1021.3
20260906151205 20 301 3.2 4.8 0.00 0.00 0.00 71 1021.3
20260906150700 20 37 0.0 1.6 0.00 0.00 0.00 71 1021.2
20260906150155 20 32 0.0 0.0 0.00 0.00 0.00 71 1021.2
20260906145654 20 55 0.0 0.0 0.00 0.00 0.00 71 1021.2
20260906145154 20 55 0.0 0.0 0.00 0.00 0.00 71 1021.3
20260906144654 20 86 0.0 0.0 0.00 0.00 0.00 71 1021.2
20260906144149 20 292 0.0 0.0 0.00 0.00 0.00 71 1021.2
20260906143649 20 293 0.0 1.6 0.00 0.00 0.00 72 1021.2
20260906143146 20 0 0.0 1.6 0.00 0.00 0.00 72 1021.2
20260906142645 19 59 1.6 1.6 0.00 0.00 0.00 67 1021.3
20260906142141 18 357 0.0 3.2 0.00 0.00 0.00 68 1021.3
20260906141639 18 37 0.0 0.0 0.00 0.00 0.00 72 1021.2
20260906141135 18 38 0.0 1.6 0.00 0.00 0.00 71 1021.1
20260906140634 18 243 0.0 0.0 0.00 0.00 0.00 72 1021.2
20260906140129 18 230 0.0 0.0 0.00 0.00 0.00 74 1021.0
20260906135626 18 89 0.0 0.0 0.00 0.00 0.00 72 1021.0
20260906135122 17 103 1.6 1.6 0.00 0.00 0.00 75 1021.0
20260906134617 17 76 0.0 0.0 0.00 0.00 0.00 76 1021.1
20260906134112 17 173 0.0 0.0 0.00 0.00 0.00 77 1021.0
20260906133608 17 353 0.0 3.2 0.00 0.00 0.00 77 1021.1
20260906133103 17 224 0.0 0.0 0.00 0.00 0.00 78 1020.9
20260906132558 16 224 0.0 0.0 0.00 0.00 0.00 78 1021.2
20260906132054 16 66 1.6 1.6 0.00 0.00 0.00 78 1021.2
20260906131549 16 37 0.0 0.0 0.00 0.00 0.00 79 1021.1
20260906131044 16 212 0.0 0.0 0.00 0.00 0.00 79 1021.0
20260906130544 16 212 0.0 0.0 0.00 0.00 0.00 79 1021.0
20260906130039 15 37 0.0 0.0 0.00 0.00 0.00 80 1021.2
20260906125537 15 37 0.0 0.0 0.00 0.00 0.00 80 1021.2
20260906125036 15 230 0.0 0.0 0.00 0.00 0.00 79 1021.0
20260906124532 15 129 0.0 0.0 0.00 0.00 0.00 79 1021.1
20260906124027 15 89 0.0 0.0 0.00 0.00 0.00 79 1021.0
20260906123526 15 229 0.0 0.0 0.00 0.00 0.00 81 1021.0
20260906123021 15 260 0.0 1.6 0.00 0.00 0.00 82 1021.0
20260906122521 14 243 0.0 0.0 0.00 0.00 0.00 82 1020.9
20260906122017 14 257 0.0 1.6 0.00 0.00 0.00 84 1021.0
20260906121513 14 240 0.0 1.6 0.00 0.00 0.00 84 1021.1
20260906121010 13 224 0.0 1.6 0.00 0.00 0.00 84 1021.0
20260906120509 13 224 0.0 1.6 0.00 0.00 0.00 84 1021.0
20260906120008 13 230 0.0 0.0 0.00 0.00 0.00 86 1020.9
20260906115502 13 209 0.0 0.0 0.00 0.00 0.00 86 1021.0
20260906115002 13 209 0.0 0.0 0.00 0.00 0.00 87 1020.7
20260906114456 13 209 0.0 0.0 0.00 0.00 0.00 86 1020.7
20260906113953 13 229 0.0 0.0 0.00 0.00 0.00 85 1020.5
20260906113451 13 230 0.0 0.0 0.00 0.00 0.00 85 1020.5
20260906112946 13 205 0.0 0.0 0.00 0.00 0.00 86 1020.6
20260906112441 13 212 0.0 0.0 0.00 0.00 0.00 86 1020.5
20260906111937 13 246 0.0 0.0 0.00 0.00 0.00 86 1020.4
20260906111436 13 243 0.0 0.0 0.00 0.00 0.00 86 1020.3
20260906110931 13 209 0.0 0.0 0.00 0.00 0.00 85 1020.4
20260906110427 13 229 0.0 0.0 0.00 0.00 0.00 87 1020.0
20260906105926 13 224 0.0 0.0 0.00 0.00 0.00 87 1020.4
20260906105422 13 224 0.0 0.0 0.00 0.00 0.00 89 1020.3
20260906104918 13 230 0.0 0.0 0.00 0.00 0.00 88 1020.2
20260906104416 13 230 0.0 0.0 0.00 0.00 0.00 89 1020.1
20260906103915 13 230 0.0 0.0 0.00 0.00 0.00 88 1020.1
20260906103414 13 230 0.0 0.0 0.00 0.00 0.00 89 1020.2
20260906102910 13 246 0.0 0.0 0.00 0.00 0.00 88 1020.0
20260906102409 13 246 0.0 0.0 0.00 0.00 0.00 88 1020.2
20260906101904 13 267 0.0 0.0 0.00 0.00 0.00 88 1020.4
20260906101359 13 315 0.0 0.0 0.00 0.00 0.00 89 1020.3
20260906100854 13 248 0.0 0.0 0.00 0.00 0.00 90 1020.1
20260906100353 13 235 0.0 0.0 0.00 0.00 0.00 90 1020.1
20260906095848 13 240 0.0 0.0 0.00 0.00 0.00 89 1020.2
20260906095344 13 246 0.0 0.0 0.00 0.00 0.00 87 1020.0
20260906094843 13 240 0.0 0.0 0.00 0.00 0.00 88 1020.2
20260906094339 13 230 0.0 0.0 0.00 0.00 0.00 88 1020.2
20260906093835 13 230 0.0 0.0 0.00 0.00 0.00 89 1020.3
20260906093331 13 230 0.0 0.0 0.00 0.00 0.00 88 1020.3
20260906092826 13 230 0.0 0.0 0.00 0.00 0.00 89 1020.2
20260906092325 13 252 0.0 0.0 0.00 0.00 0.00 90 1020.2
20260906091821 13 252 0.0 0.0 0.00 0.00 0.00 90 1020.3
20260906091317 13 252 0.0 0.0 0.00 0.00 0.00 89 1020.2
20260906090813 13 252 0.0 0.0 0.00 0.00 0.00 90 1020.1
20260906090312 13 252 0.0 0.0 0.00 0.00 0.00 90 1020.2
20260906085807 13 235 0.0 0.0 0.00 0.00 0.00 90 1020.2
20260906085307 13 235 0.0 0.0 0.00 0.00 0.00 89 1020.3
20260906084801 13 235 0.0 0.0 0.00 0.00 0.00 89 1020.1
20260906084300 13 235 0.0 0.0 0.00 0.00 0.00 89 1020.3
20260906083755 13 224 0.0 0.0 0.00 0.00 0.00 88 1020.0
20260906083250 13 224 0.0 0.0 0.00 0.00 0.00 90 1020.0
20260906082745 13 224 0.0 0.0 0.00 0.00 0.00 89 1020.0
20260906082240 13 212 0.0 0.0 0.00 0.00 0.00 89 1020.0
20260906081736 13 202 0.0 0.0 0.00 0.00 0.00 87 1019.9
20260906081231 13 224 0.0 0.0 0.00 0.00 0.00 89 1019.8
20260906080728 13 224 0.0 0.0 0.00 0.00 0.00 89 1019.8
20260906080224 13 212 0.0 0.0 0.00 0.00 0.00 88 1019.8
20260906075724 13 202 0.0 0.0 0.00 0.00 0.00 89 1019.9
20260906075224 13 228 0.0 0.0 0.00 0.00 0.00 89 1020.0
20260906074719 13 173 0.0 0.0 0.00 0.00 0.00 89 1020.1
20260906074218 13 218 0.0 0.0 0.00 0.00 0.00 89 1020.1
20260906073713 13 202 0.0 0.0 0.00 0.00 0.00 89 1020.1
20260906073208 13 230 0.0 0.0 0.00 0.00 0.00 90 1019.8
20260906072704 13 230 0.0 0.0 0.00 0.00 0.00 90 1019.9
20260906072159 13 157 0.0 0.0 0.00 0.00 0.00 90 1019.9
20260906071655 13 209 0.0 1.6 0.00 0.00 0.00 90 1019.9
20260906071154 13 204 0.0 0.0 0.00 0.00 0.00 90 1020.1
20260906070652 13 141 0.0 0.0 0.00 0.00 0.00 90 1019.8
20260906070147 13 141 0.0 0.0 0.00 0.00 0.00 90 1019.9
20260906065646 13 141 0.0 0.0 0.00 0.00 0.00 90 1019.9
20260906065142 13 141 0.0 0.0 0.00 0.00 0.00 90 1019.7
20260906064637 13 224 0.0 0.0 0.00 0.00 0.00 89 1019.8
20260906064133 13 217 0.0 0.0 0.00 0.00 0.00 89 1019.7
20260906063628 13 246 0.0 0.0 0.00 0.00 0.00 89 1019.7
20260906063124 13 215 0.0 1.6 0.00 0.00 0.00 89 1019.7
20260906062619 13 202 0.0 1.6 0.00 0.00 0.00 89 1019.7
20260906062118 13 197 0.0 1.6 0.00 0.00 0.00 90 1019.7
20260906061614 13 218 0.0 1.6 0.00 0.00 0.00 90 1019.7
20260906061114 13 230 0.0 0.0 0.00 0.00 0.00 89 1019.5
20260906060611 13 230 0.0 1.6 0.00 0.00 0.00 89 1019.7
20260906060108 13 212 0.0 0.0 0.00 0.00 0.00 90 1019.4
20260906055603 13 225 0.0 1.6 0.00 0.00 0.00 90 1019.4
20260906055058 13 225 0.0 0.0 0.00 0.00 0.00 91 1019.5
20260906054558 13 217 0.0 0.0 0.00 0.00 0.00 91 1019.4
20260906054053 13 230 0.0 0.0 0.00 0.00 0.00 91 1019.2
20260906053550 13 217 0.0 0.0 0.00 0.00 0.00 92 1019.4
20260906053045 13 217 0.0 0.0 0.00 0.00 0.00 92 1019.2
20260906052540 13 217 0.0 0.0 0.00 0.00 0.00 93 1019.4
20260906052038 13 217 0.0 0.0 0.00 0.00 0.00 93 1019.2
20260906051533 13 217 0.0 0.0 0.00 0.00 0.00 93 1019.2
20260906051028 13 224 0.0 0.0 0.00 0.00 0.00 93 1019.2
20260906050523 13 309 0.0 0.0 0.00 0.00 0.00 93 1019.0
20260906050018 13 293 0.0 0.0 0.00 0.00 0.00 93 1019.3
20260906045516 13 230 0.0 0.0 0.00 0.00 0.00 93 1019.2
20260906045012 13 230 0.0 0.0 0.00 0.00 0.00 93 1019.0
20260906044508 13 230 0.0 0.0 0.00 0.00 0.00 93 1019.2
20260906044003 13 217 0.0 0.0 0.00 0.00 0.00 93 1019.4
20260906043458 13 249 0.0 1.6 0.00 0.00 0.00 92 1019.2
20260906042954 13 230 0.0 0.0 0.00 0.00 0.00 92 1019.3
20260906042453 14 217 0.0 0.0 0.00 0.00 0.00 92 1019.2
20260906041953 14 230 0.0 1.6 0.00 0.00 0.00 92 1019.1
20260906041450 14 211 1.6 3.2 0.00 0.00 0.00 92 1019.1
20260906040949 14 219 1.6 3.2 0.00 0.00 0.00 92 1018.9
20260906040444 14 215 1.6 3.2 0.00 0.00 0.00 92 1019.0
20260906035939 14 225 1.6 1.6 0.00 0.00 0.00 92 1018.8
20260906035435 14 190 1.6 1.6 0.00 0.00 0.00 91 1018.7
20260906034930 14 229 0.0 1.6 0.00 0.00 0.00 92 1018.8
20260906034425 14 193 0.0 0.0 0.00 0.00 0.00 93 1018.8
20260906033920 14 217 0.0 0.0 0.00 0.00 0.00 93 1018.8
20260906033421 14 186 0.0 0.0 0.00 0.00 0.00 93 1018.8
20260906032916 14 230 0.0 0.0 0.00 0.00 0.00 93 1018.8
20260906032413 14 142 0.0 0.0 0.00 0.00 0.00 93 1018.9
20260906031913 15 129 0.0 0.0 0.00 0.00 0.00 93 1018.8
20260906031409 15 129 0.0 0.0 0.00 0.00 0.00 93 1018.9
20260906030909 15 113 0.0 0.0 0.00 0.00 0.00 93 1018.8
20260906030404 15 147 0.0 0.0 0.00 0.00 0.00 94 1018.8
20260906025858 15 142 0.0 0.0 0.00 0.00 0.00 94 1018.6
20260906025353 15 142 0.0 0.0 0.00 0.00 0.00 94 1018.8
20260906024851 15 166 0.0 0.0 0.00 0.00 0.00 95 1018.7
20260906024351 15 230 0.0 0.0 0.00 0.00 0.00 95 1018.5
20260906023846 15 230 0.0 0.0 0.00 0.00 0.00 95 1018.5
20260906023342 15 230 0.0 0.0 0.00 0.00 0.00 95 1018.5
20260906022837 15 322 0.0 0.0 0.00 0.00 0.00 95 1018.8
20260906022337 15 322 0.0 0.0 0.00 0.00 0.00 95 1018.6
20260906021833 15 322 0.0 0.0 0.00 0.00 0.00 95 1018.5
20260906021333 15 322 0.0 0.0 0.00 0.00 0.00 95 1018.7
20260906020828 15 322 0.0 0.0 0.00 0.00 0.00 95 1018.6
20260906020327 15 322 0.0 0.0 0.00 0.00 0.00 95 1018.8
20260906015822 15 322 0.0 0.0 0.00 0.00 0.00 95 1018.6
20260906015321 15 322 0.0 0.0 0.00 0.00 0.00 95 1018.7
20260906014820 16 230 0.0 0.0 0.00 0.00 0.00 95 1018.7
20260906014316 16 230 0.0 0.0 0.00 0.00 0.00 95 1018.8
20260906013812 16 230 0.0 0.0 0.00 0.00 0.00 95 1018.8
20260906013307 16 230 0.0 0.0 0.00 0.00 0.00 94 1018.7
20260906012802 16 217 0.0 0.0 0.00 0.00 0.00 94 1018.7
20260906012257 16 217 0.0 0.0 0.00 0.00 0.00 94 1018.7
20260906011752 16 217 0.0 0.0 0.00 0.00 0.00 94 1018.6
20260906011252 16 142 0.0 0.0 0.00 0.00 0.00 94 1018.8
20260906010748 16 142 0.0 0.0 0.00 0.00 0.00 93 1018.6
20260906010244 16 142 0.0 0.0 0.00 0.00 0.00 93 1018.6
20260906005739 16 217 0.0 0.0 0.00 0.00 0.00 93 1018.7
20260906005238 16 212 0.0 0.0 0.00 0.00 0.00 93 1018.6
20260906004737 17 212 0.0 0.0 0.00 0.00 0.00 93 1018.6
20260906004233 17 212 0.0 0.0 0.00 0.00 0.00 92 1018.7
20260906003733 17 212 0.0 0.0 0.00 0.00 0.00 92 1018.7
20260906003229 17 212 0.0 0.0 0.00 0.00 0.00 91 1018.7
20260906002728 17 218 0.0 0.0 0.00 0.00 0.00 90 1018.6
20260906002229 17 218 0.0 0.0 0.00 0.00 0.00 89 1018.5
20260906001724 17 309 0.0 0.0 0.00 0.00 0.00 89 1018.8
20260906001219 17 309 0.0 0.0 0.00 0.00 0.00 88 1018.6
20260906000714 18 299 0.0 0.0 0.00 0.00 0.00 87 1018.6
20260906000212 18 217 0.0 0.0 0.00 0.00 0.00 86 1018.4
20260905235709 18 13 0.0 0.0 0.00 0.00 0.00 85 1018.3
20260905235204 18 135 0.0 0.0 0.00 0.00 0.00 84 1018.6
20260905234659 18 333 0.0 3.2 0.00 0.00 0.00 83 1018.4
20260905234154 19 322 0.0 3.2 0.00 0.00 0.00 81 1018.5
20260905233649 19 321 4.8 4.8 0.00 0.00 0.00 79 1018.7
20260905233149 19 37 0.0 3.2 0.00 0.00 0.00 78 1018.6
20260905232644 19 345 3.2 6.4 0.00 0.00 0.00 77 1018.7
20260905232140 20 340 3.2 4.8 0.00 0.00 0.00 76 1018.8
20260905231635 20 339 3.2 3.2 0.00 0.00 0.00 74 1018.6
20260905231131 20 279 0.0 3.2 0.00 0.00 0.00 74 1018.7
20260905230627 20 306 3.2 4.8 0.00 0.00 0.00 73 1018.6
20260905230125 20 344 0.0 6.4 0.00 0.00 0.00 73 1018.9
20260905225624 20 298 6.4 6.4 0.00 0.00 0.00 73 1018.8
20260905225120 20 339 4.8 4.8 0.00 0.00 0.00 72 1018.6
20260905224619 20 319 3.2 8.0 0.00 0.00 0.00 69 1018.6
20260905224119 20 292 3.2 4.8 0.00 0.00 0.00 73 1018.8
20260905223616 20 267 0.0 4.8 0.00 0.00 0.00 73 1018.5
20260905223112 21 246 0.0 1.6 0.00 0.00 0.00 70 1018.4
20260905222612 21 301 3.2 4.8 0.00 0.00 0.00 68 1018.6
20260905222108 21 325 1.6 6.4 0.00 0.00 0.00 69 1018.8
20260905221603 21 307 1.6 3.2 0.00 0.00 0.00 69 1018.5
20260905221100 21 324 4.8 4.8 0.00 0.00 0.00 68 1018.4
20260905220555 21 295 3.2 6.4 0.00 0.00 0.00 68 1018.3
20260905220051 21 10 3.2 8.0 0.00 0.00 0.00 66 1018.6
20260905215550 21 349 3.2 4.8 0.00 0.00 0.00 69 1018.3
20260905215046 21 311 3.2 4.8 0.00 0.00 0.00 66 1018.4
20260905214543 21 313 1.6 3.2 0.00 0.00 0.00 69 1018.5
20260905214043 21 309 3.2 6.4 0.00 0.00 0.00 67 1018.5
20260905213538 21 334 4.8 4.8 0.00 0.00 0.00 68 1018.4
20260905213033 21 334 4.8 6.4 0.00 0.00 0.00 67 1018.5
20260905212528 22 321 4.8 6.4 0.00 0.00 0.00 66 1018.3
20260905212027 22 314 4.8 8.0 0.00 0.00 0.00 65 1018.3
20260905211523 22 299 4.8 9.7 0.00 0.00 0.00 65 1018.3
20260905211019 22 292 3.2 4.8 0.00 0.00 0.00 64 1018.2
20260905210514 22 323 1.6 8.0 0.00 0.00 0.00 65 1018.1
20260905210015 22 230 0.0 6.4 0.00 0.00 0.00 63 1018.3
20260905205514 22 191 1.6 8.0 0.00 0.00 0.00 62 1018.2
20260905205013 22 303 4.8 6.4 0.00 0.00 0.00 65 1018.0
20260905204508 23 333 9.7 9.7 0.00 0.00 0.00 63 1018.1
20260905204009 22 50 0.0 9.7 0.00 0.00 0.00 67 1018.0
20260905203503 23 298 3.2 11.3 0.00 0.00 0.00 63 1018.2
20260905202959 22 321 3.2 4.8 0.00 0.00 0.00 65 1018.3
20260905202454 22 340 4.8 12.9 0.00 0.00 0.00 64 1018.4
20260905201949 22 349 6.4 6.4 0.00 0.00 0.00 64 1018.4
20260905201444 23 320 6.4 8.0 0.00 0.00 0.00 63 1018.4
20260905200944 23 335 1.6 8.0 0.00 0.00 0.00 65 1018.6
20260905200440 23 347 3.2 12.9 0.00 0.00 0.00 64 1018.4
20260905195938 24 348 4.8 6.4 0.00 0.00 0.00 61 1018.4
20260905195433 23 348 4.8 8.0 0.00 0.00 0.00 62 1018.2
20260905194929 23 301 4.8 6.4 0.00 0.00 0.00 60 1018.3
20260905194428 23 308 3.2 6.4 0.00 0.00 0.00 62 1018.4
20260905193929 23 180 0.0 4.8 0.00 0.00 0.00 64 1018.3
20260905193424 23 326 3.2 9.7 0.00 0.00 0.00 64 1018.5
20260905192919 23 314 4.8 8.0 0.00 0.00 0.00 64 1018.6
20260905192414 23 309 4.8 6.4 0.00 0.00 0.00 63 1018.6
20260905191914 23 333 8.0 9.7 0.00 0.00 0.00 62 1018.6